Voltar ao catálogo

SL-12 DEB

AtivoHEO
NORAD 34667·DEBRIS·🇷🇺 Russia

Lançado Apr 4, 1991 de Baikonur Cosmodrome

Loading…

Próximas Passagens (próximas 24 horas)

TLE

AtualizadoSource: Space-Track

Época: Sep 12, 2026, 10:46 UTC

1 34667U 91025L   26255.44862814 -.00000960  00000-0 -85369-2 0  9990
2 34667  65.4437  56.3647 5462468 344.5166  11.8743  4.44299396277608

Acompanhe SL-12 DEB em tempo real com AllMySat

Download on the App Store